リニア彗星

C/2003 V1 ( LINEAR )

English version
Home page
Updated on July 17, 2004

---------------------------------------------------------------------

・ プロフィール

発見日 2003年11月4日
発見光度 18.1等
発見者 Lincoln Laboratory Near-Earth Asteroid Research project

・ 軌道要素

Epoch 2003 Mar. 22.0 TT = JDT 2452720.5
T 2003 Mar. 11.18143 TT                                 MPC
q   1.7824663            (2000.0)            P               Q
z  +0.0016800      Peri.    8.59250     +0.83268703     -0.51270025
 +/-0.0000351      Node    25.84964     +0.47525741     +0.46779186
e   0.9970055      Incl.   28.67483     +0.28418780     +0.71993696
>From 341 observations 2003 Nov. 4-2004 Feb. 1, mean residual 0".67.

・ 星図

・ 光度変化

        m1 = 9.3 + 5 logΔ + 7.5 log r

---------------------------------------------------------------------

軌道要素はM.P.E.C. 2004-C06に掲載されたものです。
星図は StellaNavigator Ver.2.0 for Windows (アストロアーツ 編著 / アスキー出版局刊) で作成したものです。
光度グラフはComet for Windowsで作成したものです。

---------------------------------------------------------------------

Copyright(C) Seiichi Yoshida (comet@aerith.net). All rights reserved.